Weather History for LIME - March, 2013

Change the Weather History Date:

Monday, March 25, 2013

  Actual Average Record
Temperature  
Mean Temperature 39 °F -  
Max Temperature 41 °F 60 °F 68 °F (2003)
Min Temperature 37 °F 43 °F 33 °F (2002)
Degree Days  
Heating Degree Days 26    
Moisture  
Dew Point 39 °F    
Average Humidity 99    
Maximum Humidity 100    
Minimum Humidity 93    
Precipitation  
Precipitation 0.00 in 0.12 in - ()
Sea Level Pressure  
Sea Level Pressure 29.59 in    
Wind  
Wind Speed 5 mph ()    
Max Wind Speed 9 mph    
Max Gust Speed -    
Visibility 1.4 miles    
Events Fog , Rain    
Averages and records for this station are not official NWS values.
T = Trace of Precipitation, MM = Missing Value Source: Averaged Metar Reports

Daily Weather History Graph

Daily Weather History Graph

Search for Another Location

Airport or City:

Trip Planner

Search our weather history database for the weather conditions in past years. The results will help you decide how hot, cold, wet, or windy it might be!

Date:

Astronomy

Mar. 25, 2013 Rise Set
Actual Time 6:14 AM CET 6:40 PM CET
Civil Twilight 5:44 AM CET 7:10 PM CET
Nautical Twilight 5:09 AM CET 7:45 PM CET
Astronomical Twilight 4:33 AM CET 8:21 PM CET
Moon 4:50 PM CET (3/25) 4:54 AM CET (3/25)
Length of Visible Light 13h 25m
Length of Day
12h 25m
Waxing Gibbous, 95% of the Moon is Illuminated
Mar 25
Waxing Gibbous
Mar 27
Full
Apr 3
Last Quarter
Apr 10
New
Apr 18
First Quarter

Hourly Weather History & Observations

Time (CET) Temp. Windchill Dew Point Humidity Pressure Visibility Wind Dir Wind Speed Gust Speed Precip Events Conditions
12:20 AM 41.0 °F 37.1 °F 41.0 °F 100% 29.68 in 1.9 mi SW 5.8 mph - N/A Rain Rain
12:50 AM 41.0 °F 37.1 °F 41.0 °F 100% 29.68 in 1.9 mi West 5.8 mph - N/A Rain Rain
1:20 AM 41.0 °F 37.1 °F 41.0 °F 100% 29.65 in 1.9 mi West 5.8 mph - N/A Rain Light Rain
1:50 AM 41.0 °F 37.1 °F 41.0 °F 100% 29.65 in 1.9 mi West 5.8 mph - N/A Rain Light Rain
2:20 AM 41.0 °F 36.4 °F 41.0 °F 100% 29.65 in 0.9 mi SSW 6.9 mph - N/A   Mostly Cloudy
2:50 AM 39.2 °F 33.0 °F 39.2 °F 100% 29.65 in 0.9 mi SSW 9.2 mph - N/A   Mostly Cloudy
3:20 AM 39.2 °F 34.2 °F 39.2 °F 100% 29.65 in 1.2 mi SW 6.9 mph - N/A Rain Light Rain
3:50 AM 39.2 °F 35.0 °F 39.2 °F 100% 29.65 in 1.2 mi SSW 5.8 mph - N/A Rain Light Rain
4:20 AM 39.2 °F 35.0 °F 39.2 °F 100% 29.65 in 1.9 mi SW 5.8 mph - N/A Rain Light Rain
4:50 AM 39.2 °F 35.9 °F 39.2 °F 100% 29.62 in 1.9 mi SW 4.6 mph - N/A Rain Light Rain
5:20 AM 39.2 °F 35.9 °F 39.2 °F 100% 29.62 in 2.5 mi SW 4.6 mph - N/A Rain Light Rain
5:50 AM 41.0 °F 38.0 °F 39.2 °F 93% 29.62 in 2.5 mi West 4.6 mph - N/A Rain Light Rain
6:20 AM 39.2 °F 35.0 °F 39.2 °F 100% 29.62 in 3.1 mi SSW 5.8 mph - N/A   Mostly Cloudy
6:50 AM 39.2 °F 35.9 °F 39.2 °F 100% 29.62 in 3.1 mi SSW 4.6 mph - N/A Rain Light Rain
7:20 AM 39.2 °F 34.2 °F 39.2 °F 100% 29.62 in 2.5 mi SW 6.9 mph - N/A Rain Light Rain
7:50 AM 39.2 °F 35.0 °F 39.2 °F 100% 29.62 in 2.2 mi SW 5.8 mph - N/A Rain Light Rain
8:20 AM 39.2 °F 34.2 °F 39.2 °F 100% 29.59 in 1.6 mi WSW 6.9 mph - N/A Rain Light Rain
8:50 AM 39.2 °F 34.2 °F 39.2 °F 100% 29.59 in 1.6 mi West 6.9 mph - N/A Rain Light Rain
9:20 AM 41.0 °F 37.1 °F 39.2 °F 93% 29.59 in 1.1 mi WSW 5.8 mph - N/A Rain Light Rain
9:50 AM 39.2 °F 34.2 °F 39.2 °F 100% 29.59 in 0.4 mi WSW 6.9 mph - N/A Fog Fog
10:20 AM 39.2 °F 33.6 °F 39.2 °F 100% 29.59 in 0.4 mi WSW 8.1 mph - N/A Fog Fog
10:50 AM 39.2 °F 33.6 °F 39.2 °F 100% 29.59 in 0.4 mi SW 8.1 mph - N/A Fog Fog
11:20 AM 39.2 °F 33.6 °F 39.2 °F 100% 29.59 in 0.4 mi SSW 8.1 mph - N/A Fog Fog
11:50 AM 39.2 °F 35.0 °F 39.2 °F 100% 29.59 in 0.4 mi SSW 5.8 mph - N/A Fog Fog
12:20 PM 39.2 °F 35.0 °F 39.2 °F 100% 29.56 in 0.5 mi SW 5.8 mph - N/A Fog Fog
12:50 PM 39.2 °F 35.0 °F 39.2 °F 100% 29.56 in 0.5 mi SSW 5.8 mph - N/A Fog Fog
1:20 PM 39.2 °F 35.0 °F 39.2 °F 100% 29.56 in 0.6 mi SSW 5.8 mph - N/A   Mostly Cloudy
1:50 PM 39.2 °F 35.0 °F 39.2 °F 100% 29.53 in 0.5 mi South 5.8 mph - N/A Fog Fog
2:20 PM 39.2 °F 35.0 °F 39.2 °F 100% 29.53 in 0.5 mi South 5.8 mph - N/A Fog Fog
2:50 PM 39.2 °F 35.0 °F 39.2 °F 100% 29.53 in 0.5 mi South 5.8 mph - N/A Fog Fog
3:20 PM 39.2 °F 35.0 °F 39.2 °F 100% 29.53 in 0.5 mi SSE 5.8 mph - N/A Fog Fog
3:50 PM 39.2 °F 35.0 °F 39.2 °F 100% 29.53 in 0.5 mi South 5.8 mph - N/A Fog Fog
4:20 PM 39.2 °F 35.0 °F 39.2 °F 100% 29.53 in 0.5 mi South 5.8 mph - N/A Fog Fog
4:50 PM 39.2 °F 35.0 °F 39.2 °F 100% 29.53 in 0.5 mi SSE 5.8 mph - N/A Fog Fog
5:20 PM 39.2 °F 35.0 °F 39.2 °F 100% 29.53 in 0.5 mi SE 5.8 mph - N/A Fog Fog
5:50 PM 39.2 °F 35.9 °F 39.2 °F 100% 29.53 in 0.5 mi SSE 4.6 mph - N/A Fog Fog
6:20 PM 39.2 °F 35.9 °F 39.2 °F 100% 29.53 in 1.9 mi SE 4.6 mph - N/A   Mostly Cloudy
7:20 PM 39.2 °F 35.9 °F 39.2 °F 100% 29.53 in 1.9 mi SSE 4.6 mph - N/A   Light Drizzle
7:50 PM 39.2 °F 35.9 °F 37.4 °F 93% 29.56 in 0.9 mi South 4.6 mph - N/A   Light Drizzle
8:20 PM 39.2 °F 35.9 °F 37.4 °F 93% 29.56 in 0.9 mi SSE 4.6 mph - N/A   Light Drizzle
8:50 PM 39.2 °F 34.2 °F 37.4 °F 93% 29.56 in 0.9 mi SSE 6.9 mph - N/A   Light Drizzle
9:20 PM 37.4 °F 32.8 °F 37.4 °F 100% 29.56 in 1.9 mi SSE 5.8 mph - N/A   Mostly Cloudy
9:50 PM 37.4 °F 33.8 °F 37.4 °F 100% 29.56 in 2.2 mi SSE 4.6 mph - N/A   Mostly Cloudy
10:20 PM 37.4 °F 33.8 °F 35.6 °F 93% 29.56 in 2.5 mi South 4.6 mph - N/A   Light Drizzle
10:50 PM 37.4 °F 34.9 °F 35.6 °F 93% 29.56 in 2.8 mi SE 3.5 mph - N/A   Mostly Cloudy
11:20 PM 37.4 °F 34.9 °F 35.6 °F 93% 29.56 in 2.8 mi SE 3.5 mph - N/A   Mostly Cloudy
11:50 PM 37.4 °F 32.8 °F 35.6 °F 93% 29.56 in 2.5 mi SE 5.8 mph - N/A   Mostly Cloudy